STARLINK-31289, 59173

Orbit data source: Space-Track

STARLINK-31289, 59173 is a payload satellite owned by SpaceX/Seattle (US) in LEO that was launched on Mon, 04 Mar 2024 UTC via an FALCON 9 launch vehicle from the Air Force Eastern Test Range (AFETR). Payload-class satellites include a variety of spacecraft equipped with specific instruments for various scientific and technological missions. These include communications satellites like Starlink; space stations such as the ISS; scientific satellites like the Hubble; Earth observation satellites from companies like Planet Labs, Umbra, and HawkEye 360; GPS; miniature CubeSats for education and research; and military/defense satellites.

Loading next visibility...
Identifier
59173, 2024-044X
Orbit
LEO
Country
Flag of USUS
Related business
Manufacturer
SpaceX/Seattle
Mission
Operational Commercial Communications
Bus & Motor
STARLINK V2M, Unknown motor
Mass
730 kg wet, ~700 kg dry
Launch date (UTC)
2024-03-04 (2 years ago)
Launch vehicle
FALCON 9
Launch site
Air Force Eastern Test Range (AFETR)
Object type
Payload
Rocket body
Debris
Shape & HBR
Box + 2 Pan, 17.7 m
Radar Cross Section
33.884 m², Large (>1 m²)

Expand to show TLE details & history
Last TLE update: 2 days ago

TLE from 2 days ago
0 STARLINK-31289
1 59173U 24044X   26171.27090127  .00000167  00000-0  15589-4 0  9990
2 59173  43.0024 247.7382 0001402 271.2274  88.8417 15.27576829129285
Epoch: 2026-06-20T06:30Z
TLE epoch observation values (Epoch: 2026-06-20T06:30:05.869Z)
Latitude
-0.00003°
Longitude
-118.27422°
Altitude
482.815 km
Speed
7.626 km/s
True Right ascension
16h 30m 57s
True Declination
0° 00' 00"
Sunlit
Object was in full shadow at epoch
Visualization orbit readout
Latitude
Unknown
Longitude
Unknown
Altitude
Unknown
Speed
Unknown
Apparent Right ascension
Unknown
Apparent Declination
Unknown
Sunlit
N/A
Visualization observer readout
Local Sidereal Time
21:29:08
Azimuth
Unknown
Elevation
Unknown
Doppler factor
Unknown
Orbital elements
Apogee altitude
485.966 km
Perigee altitude
484.041 km
Semi-major axis
6,863.14 km
Eccentricity
0.00014
Inclination
43.0024°
RAAN
247.7382°
Arg. of periapsis
271.2274°
True anomaly
88.85776°
Mean anomaly
88.8417°
Eccentric anomaly
88.84973°
Mean motion
3.81732 °/min
Orbital period
94.31 mins
BSTAR
0.000015589
Loading maneuver chart data...
Computing Atmospheric mass density...
Loading historical data...
Loading historical data...
Loading historical data...
Loading historical data...
Loading historical data...
Loading historical data...
Loading historical data...

Documentation

Showing up to 5 results
|